Lethbridge County Airport
CYQL : rendu visible

Aérodrome :











RETROUVEZ-NOUS SUR...

 
LOGIN :

S'inscrire | Disclaimer

   EN    FR    IT 

 









Légende :    VFR   VFR Marginal   IFR   IFR Intensif   IFR Très Intensif
Visi : 
Plafond : 
>= 8 km
>= 3000ft
5 à 8 km
1000 à 3000 ft
1500m à 5 km
500 à 1000 ft
800 à 1500m
200 à 500 ft
< 800m
< 200 ft
Symboles :   Orages  Brouillard  Fortes neiges  Fortes précipitations  Vent > 20 kt






- Altitude de l'aérodrome : 3047 ft
- Code IATA : YQL


CYQL - Lethbridge County

DERNIER METAR :
  • 011400Z 12005KT 60SM FEW120 BKN260 02/M02 A3026 RMK AC1CI5 SLP275

METARs EXPIRÉS :
  • 011300Z 14003KT 20SM SCT120 02/M02 A3029 RMK AC4 SLP281
  • 011200Z 17007KT 20SM SKC 03/M02 A3030 RMK SLP280

TAF TAF CYQL
Valide du 01 à 12h jusqu'au 02 à 00h UTC


011145Z 0112/0124 19006KT P6SM SCT240
FM011600 30006KT P6SM FEW180 SCT260
BECMG 0117/0119 29012KT RMK FCST BASED ON AUTO OBS. NXT FCST BY 011800Z
FIR CZEG / Amérique du Nord



MET'MAP, la Météo Aéronautique d'un coup d'oeil ! - Copyright ORBIFLY Décembre 2007 - Disclaimer

ORBIFLY MET'MAP TEAM :

Programmation & Développement : Alexandra Zaïnal
Sur une idée originale de : Baudouin d'Aumeries
Assistance à la programmation : Marc-Olivier Méhu
Soutien technique & logistique : Manuel Goepfert

Contact : metmap@orbifly.com




SOURCES & CREDITS :

   NOAA       Earth
Advisory